Location: Minster
(51.3167°N, 1.3167°E)
Time: 19:31:12
(UTC+00:00)

Daily predictions for brighter satellites

Satellite Brightness Start Highest point End
(mag) Time Altitude Azimuth Time Altitude Azimuth Time Altitude Azimuth
COSMOS 2455 4.0 16:21:49 10° NW 16:27:39 51° WSW 16:33:26 10° SSE
USA 267 3.4 16:22:12 10° E 16:28:37 64° NNE 16:35:04 10° WNW
Cosmos 2322 3.8 16:23:37 10° SSW 16:29:12 64° ESE 16:34:51 10° NE
Cosmos 540 Rocket 3.7 16:24:54 10° S 16:29:52 52° ESE 16:34:51 10° NNE
Cosmos 2369 Rocket 3.9 16:27:28 10° N 16:30:37 15° NNE 16:33:45 10° ENE
Cosmos 1766 Rocket 4.1 16:27:41 10° NNW 16:32:07 66° W 16:36:28 10° S
NOSS 2-1 (E) 4.2 16:27:48 10° NW 16:32:37 74° NE 16:39:24 10° SE
Cosmos 1844 Rocket 4.4 16:27:49 10° NW 16:33:04 40° WSW 16:38:17 10° S
SJ 16-02 4.3 16:31:59 10° NW 16:35:20 21° W 16:38:41 10° SSW
Okean-O 4.4 16:34:01 10° ENE 16:35:49 12° NE 16:37:38 10° NNE
Cosmos 1743 Rocket 3.9 16:32:37 10° N 16:36:58 47° ENE 16:41:16 10° SSE
Cosmos 841 Rocket 3.6 16:33:00 10° S 16:38:08 59° ESE 16:43:16 10° NNE
CORIOLIS 4.4 16:35:14 10° SE 16:40:22 46° ENE 16:45:33 10° N
Envisat 3.0 16:36:01 10° SSE 16:41:04 76° ENE 16:46:11 10° NNW
Cosmos 1408 Rocket 3.6 16:39:06 10° N 16:43:32 87° WSW 16:47:54 10° S
H-2A R/B 2.5 16:39:35 10° SSE 16:43:56 77° ENE 16:48:09 10° NNW
H-2A R/B 3.0 16:41:38 10° S 16:45:26 75° WSW 16:49:19 10° NNW
Cosmos 2315 Rocket 4.4 16:41:12 10° SSW 16:47:23 69° WNW 16:53:41 10° N
H-2A R/B 3.7 16:45:21 10° E 16:47:57 14° NE 16:50:31 10° NNE
Okean O Rocket 1.8 16:44:11 10° SE 16:48:22 49° ENE 16:52:37 10° N
Nadezhda 1 Rocket 4.4 16:42:33 10° SSE 16:48:29 44° E 16:54:29 10° NNE
Sich 1 4.0 16:44:56 10° N 16:48:43 26° ENE 16:52:26 10° SE
Cosmos 2333 4.3 16:46:25 10° SSW 16:52:07 87° WNW 16:57:48 10° NNE
Cosmos 1842 Rocket 3.5 16:47:51 10° S 16:52:07 63° E 16:56:25 10° NNE
Aureole 2 Rocket 3.0 16:50:00 10° NW 16:52:38 48° WSW 16:55:23 10° S
Cosmos 405 Rocket 2.8 16:49:26 10° N 16:53:16 57° ENE 16:57:08 10° SSE
EP 1 4.3 16:52:26 10° SW 16:55:19 83° NW 16:57:36 13° NE
Cosmos 2154 Rocket 4.1 16:50:04 10° N 16:56:21 62° ENE 17:02:38 10° SSE
Cosmos 1805 Rocket 4.0 16:53:00 10° N 16:57:14 39° ENE 17:01:25 10° SE
Cosmos 1814 Rocket 4.0 16:55:41 10° SSW 17:00:59 71° ESE 17:06:17 10° NNE
YAOGAN 6 2.6 16:57:34 10° SSE 17:01:14 86° W 17:04:54 10° NNW
Cosmos 2341 Rocket 4.4 16:57:43 10° N 17:03:36 41° ENE 17:09:30 10° SE
Cosmos 1943 Rocket 3.3 16:59:49 10° NNW 17:04:16 24° NE 17:07:55 13° E
Cosmos 2322 Rocket 3.7 17:02:05 10° WSW 17:07:05 30° NW 17:12:05 10° NNE
SMAP 3.0 17:02:27 10° SSE 17:07:07 81° ENE 17:11:48 10° NNW
Cosmos 1570 Rocket 4.0 17:02:14 10° SSW 17:07:33 89° ESE 17:12:53 10° NNE
Radarsat 4.5 17:02:55 10° SSE 17:08:05 74° ENE 17:13:18 10° NNW
Helios 1A Rocket 4.2 17:05:16 10° ESE 17:08:09 19° ENE 17:11:02 10° NNE
SL-16 R/B 3.8 17:06:01 10° SE 17:08:54 14° E 17:09:55 14° E
USA 281 3.5 17:02:47 10° ESE 17:08:55 44° NE 17:15:05 10° NNW
CZ-4C R/B 3.3 17:09:31 10° N 17:13:08 75° WNW 17:16:45 10° SSW
Cosmos 2285 Rocket 4.5 17:12:43 10° NNW 17:18:42 38° NE 17:24:37 10° ESE
CREW DRAGON DEMO-1 DEB 2.7 17:15:43 10° W 17:18:43 89° S 17:20:29 22° E
NOSS 0 Rocket 4.1 17:12:56 10° S 17:18:58 54° ESE 17:24:40 12° NE
Cosmos 405 3.3 17:17:03 10° SSW 17:20:31 68° WNW 17:24:01 10° N
Cosmos 1606 3.5 17:17:05 10° SSE 17:20:33 31° E 17:23:04 16° NE
Cosmos 389 Rocket 3.5 17:17:43 10° SSE 17:20:33 24° E 17:21:16 23° ENE
Feng Yun 1-1 Rocket 4.4 17:14:57 10° SE 17:20:36 56° ENE 17:26:09 10° N
Cosmos 2333 Rocket 2.5 17:16:21 10° SW 17:22:01 70° WNW 17:27:43 10° NNE
CZ-2C R/B 3.7 17:17:56 10° ESE 17:22:18 29° ENE 17:26:31 10° N
Cosmos 2084 Rocket 4.3 17:19:12 10° WSW 17:23:09 42° NNW 17:26:26 15° NE
H-2A R/B 2.0 17:19:57 10° NNE 17:24:06 86° WNW 17:28:19 10° SSW
SKYMED 2 4.5 17:22:23 16° NE 17:24:58 28° E 17:28:43 10° SSE
Landsat 5 4.0 17:22:43 10° N 17:27:00 65° WNW 17:31:24 10° SSW
COSMOS 2428 2.8 17:21:31 10° SSW 17:27:16 79° WNW 17:33:02 10° NNE
Cosmos 1607 4.5 17:21:05 10° WSW 17:27:21 58° NW 17:33:13 13° NE
Cosmos 1862 3.8 17:25:37 10° NNW 17:29:38 63° W 17:33:37 10° S
Cosmos 724 4.3 17:24:17 10° SW 17:30:11 87° SE 17:35:18 15° NE
Cosmos 1818 3.9 17:25:12 10° NW 17:30:40 69° SW 17:36:05 10° SSE
Cosmos 2150 Rocket 4.5 17:26:04 10° NNW 17:31:12 64° WSW 17:36:17 10° S
SL-8 Rocket 4.1 17:25:37 10° N 17:31:38 49° ENE 17:37:39 10° SSE
ADEOS Rocket 4.0 17:24:19 10° NNE 17:31:47 67° WNW 17:39:29 10° SSW
Cosmos 2278 Rocket 2.8 17:28:11 10° NW 17:33:48 62° WSW 17:39:23 10° SSE
Cosmos 1633 Rocket 3.5 17:30:49 10° N 17:34:57 38° ENE 17:39:03 10° SE
USA 215 3.5 17:32:16 20° ENE 17:36:50 53° SE 17:43:12 10° SW
Cosmos 2181 Rocket 4.4 17:32:43 10° SSE 17:38:39 41° E 17:44:34 10° NNE
CZ-4 R/B 1.9 17:37:52 22° ESE 17:39:44 33° ENE 17:43:20 10° N
SAR-Lupe-4 4.2 17:40:59 32° E 17:41:05 32° E 17:44:21 10° SSE
Meteor 1-25 Rocket 4.3 17:35:46 10° N 17:41:12 50° ENE 17:46:40 10° SSE
CZ-2D R/B 3.3 17:43:34 10° SSE 17:47:16 53° ENE 17:51:02 10° N
Cosmos 2360 Rocket 3.9 17:44:01 10° W 17:48:46 27° NW 17:53:32 10° NNE
Cosmos 1125 Rocket 3.9 17:43:46 10° NNW 17:48:56 64° WSW 17:54:04 10° S
BREEZE-M DEB (TANK) 3.8 17:47:32 10° SSW 17:48:49 16° S 17:48:49 16° S
Meteor 2-12 Rocket 4.4 17:42:56 10° N 17:49:09 87° E 17:55:17 10° S
Cosmos 482 Debris 4.4 17:47:41 10° WNW 17:48:41 28° WNW 17:48:41 28° WNW
Cosmos 1356 3.2 17:47:13 10° NNW 17:50:40 83° ENE 17:54:05 10° SSE
Cosmos 44 3.5 17:47:25 10° NW 17:52:35 58° NE 17:55:25 27° ESE
IRS-1C Rocket 4.0 17:47:34 10° SSE 17:52:50 76° ENE 17:58:09 10° NNW
ERS-2 2.0 17:50:53 25° NNE 17:52:55 72° ESE 17:56:34 10° S
Cosmos 2221 4.0 17:49:45 10° SW 17:53:48 37° WNW 17:57:51 10° N
Cosmos 1939 Rocket 2.7 17:50:17 10° SSE 17:54:08 87° ENE 17:58:04 10° NNW
Cosmos 2219 Rocket 3.1 17:51:46 10° SW 17:57:12 46° NW 18:02:22 11° NNE
SAR-Lupe-1 4.3 17:58:34 47° ESE 17:58:34 47° ESE 18:01:49 10° S
ISS -2.9 17:55:54 10° SW 17:59:02 37° SSE 17:59:04 37° SSE
CZ-4B R/B 1.2 18:00:04 40° N 18:01:01 75° WNW 18:04:04 10° SSW
SL-16 R/B 4.4 18:00:24 10° WNW 18:03:49 16° NNW 18:07:16 10° N
Cosmos 2237 Rocket 2.1 17:59:20 10° SSW 18:04:57 86° ESE 18:08:37 23° NNE
YAOGAN 1 2.6 18:03:51 28° SE 18:05:52 54° ENE 18:10:07 10° N
Cosmos 1470 Rocket 4.0 18:05:09 10° N 18:08:28 41° NE 18:08:28 41° NE
Okean-O 2.5 18:07:07 10° SSE 18:11:32 72° ENE 18:15:58 10° N
USA 267 3.5 18:05:49 13° SE 18:11:40 69° SW 18:18:11 10° WNW
COSMO-SKYMED 1 2.4 18:10:59 28° NNE 18:13:14 78° ESE 18:17:35 10° S
SL-24 R/B 3.8 18:13:04 55° NE 18:13:45 66° E 18:17:36 10° S
USA 81 3.9 18:09:50 10° N 18:15:11 86° E 18:20:28 10° S
Cosmos 2218 Rocket 3.8 18:09:17 10° N 18:15:29 80° E 18:21:38 10° SSE
Cosmos 2369 Rocket 2.6 18:10:54 10° NNW 18:16:18 41° NE 18:16:39 41° ENE
CSL-04 Rocket 3.7 18:18:44 40° ESE 18:20:19 55° ENE 18:25:32 10° N
Cosmos 1980 3.9 18:17:16 10° SW 18:22:57 71° WNW 18:26:26 24° NNE
Okean O Rocket 4.2 18:21:37 10° SW 18:25:00 22° W 18:28:25 10° NW
H-2A R/B 2.0 18:23:36 27° SE 18:26:29 66° ENE 18:31:39 10° N
Sich 1 4.5 18:22:24 10° NNW 18:26:31 39° W 18:30:35 10° SSW
Cosmos 2366 rocket 3.9 18:21:41 10° N 18:27:57 88° W 18:34:07 10° S
PSLV R/B 4.1 18:30:53 61° S 18:30:53 61° S 18:34:16 10° SSW
Cosmos 1933 3.3 18:27:20 10° SSW 18:31:23 81° W 18:31:27 80° WNW
Meteor 1-14 Rocket 4.2 18:28:16 10° N 18:34:11 71° ENE 18:38:09 22° SSE
Cosmos 1932 4.5 18:28:54 10° SW 18:35:28 89° NW 18:37:56 42° NE
Cosmos 2297 4.0 18:34:13 10° NW 18:39:51 67° WSW 18:44:22 16° SSE
Cosmos 783 Rocket 4.4 18:37:20 10° SSW 18:42:30 74° ESE 18:42:30 74° ESE
Helios 1A Rocket 3.5 18:39:38 14° S 18:42:58 55° WSW 18:46:57 10° NNW
Cosmos 1151 Rocket 3.4 18:43:06 10° SSW 18:46:45 59° SW 18:46:45 59° SW
SL-24 DEB 4.4 18:42:40 10° N 18:47:27 75° W 18:52:11 10° SSW
Cosmos 1943 Rocket 2.0 18:43:10 10° NNW 18:48:45 89° WSW 18:49:30 69° SSE
Meteor 1-26 Rocket 4.2 18:44:15 10° S 18:50:16 87° ESE 18:53:29 30° NNE
Cosmos 1328 Rocket 4.4 18:46:00 10° SSW 18:48:55 42° SSW 18:48:55 42° SSW
SL-16 R/B 2.1 18:46:25 10° SSW 18:51:51 75° SE 18:51:51 75° SE
USA 281 3.9 18:46:59 10° S 18:53:21 52° WSW 18:59:46 10° NW
MOS 1 Rocket 3.5 18:53:32 81° NNE 18:53:48 87° ESE 18:59:16 10° SSW
ARGOS 3.1 18:57:17 74° N 18:57:17 74° N 19:02:14 10° NNW
CZ-2C R/B 3.9 18:57:04 10° S 19:02:03 47° W 19:06:49 10° NNW
Cosmos 2333 Rocket 4.3 19:03:10 10° W 19:07:21 20° NNW 19:10:10 15° N
Cosmos 1867 3.8 19:03:33 10° SW 19:08:14 67° WSW 19:08:14 67° WSW
CZ-4 R/B 3.4 19:13:54 24° WSW 19:14:49 27° W 19:18:14 10° NW
USA 215 3.2 19:19:37 71° NNE 19:20:04 74° NNW 19:26:36 10° WSW
Cosmos 1821 Rocket 4.2 19:24:30 10° NNW 19:30:01 65° NW 19:30:01 65° NW
Cosmos 2237 Rocket 4.0 19:45:09 10° W 19:49:45 25° NW 19:50:28 24° NNW
Cosmos 2369 Rocket 3.7 19:55:01 10° NW 19:58:28 33° WNW 19:58:28 33° WNW
H-2A R/B 4.2 20:04:13 18° WSW 20:06:20 22° W 20:10:24 10° NW
